TimeCST,TemperatureF,Dew PointF,Humidity,Sea Level PressureIn,VisibilityMPH,Wind Direction,Wind SpeedMPH,Gust SpeedMPH,PrecipitationIn,Events,Conditions,WindDirDegrees,DateUTC
12:52 AM,35.1,32.0,89,29.28,-9999.0,SW,5.8,-,N/A,,Unknown,220,2014-01-12 06:52:00
1:52 AM,37.0,32.0,82,29.25,-9999.0,West,8.1,-,N/A,,Unknown,270,2014-01-12 07:52:00
2:52 AM,39.0,30.0,70,29.25,-9999.0,West,18.4,-,N/A,,Unknown,280,2014-01-12 08:52:00
3:52 AM,37.9,28.9,70,29.27,-9999.0,West,13.8,-,N/A,,Unknown,270,2014-01-12 09:52:00
4:52 AM,37.9,28.9,70,29.29,-9999.0,West,18.4,-,N/A,,Unknown,260,2014-01-12 10:52:00
5:52 AM,36.0,28.0,73,29.29,-9999.0,West,11.5,-,N/A,,Unknown,270,2014-01-12 11:52:00
6:52 AM,33.1,27.0,78,29.30,-9999.0,WSW,10.4,-,N/A,,Unknown,250,2014-01-12 12:52:00
7:52 AM,32.0,25.0,75,29.31,-9999.0,West,12.7,-,N/A,,Unknown,260,2014-01-12 13:52:00
8:52 AM,28.0,21.9,78,29.32,-9999.0,West,9.2,-,N/A,,Unknown,260,2014-01-12 14:52:00
9:52 AM,30.9,24.1,76,29.34,-9999.0,WSW,6.9,-,N/A,,Unknown,250,2014-01-12 15:52:00
10:52 AM,33.1,25.0,72,29.35,-9999.0,WSW,8.1,-,N/A,,Unknown,250,2014-01-12 16:52:00
11:52 AM,35.1,26.1,70,29.37,-9999.0,WSW,6.9,-,N/A,,Unknown,240,2014-01-12 17:52:00
12:52 PM,37.0,28.0,70,29.36,-9999.0,WSW,9.2,-,N/A,,Unknown,250,2014-01-12 18:52:00
1:52 PM,39.9,28.0,63,29.35,-9999.0,West,8.1,-,N/A,,Unknown,270,2014-01-12 19:52:00
2:52 PM,39.9,28.0,63,29.38,-9999.0,WNW,13.8,-,N/A,,Unknown,290,2014-01-12 20:52:00
3:52 PM,37.9,28.9,70,29.43,-9999.0,WNW,12.7,-,N/A,,Unknown,300,2014-01-12 21:52:00
4:52 PM,36.0,28.9,76,29.49,-9999.0,NW,23.0,28.8,N/A,,Unknown,320,2014-01-12 22:52:00
5:52 PM,28.9,25.0,85,29.57,-9999.0,NNW,31.1,36.8,N/A,,Unknown,330,2014-01-12 23:52:00
6:52 PM,28.0,23.0,81,29.62,-9999.0,NW,25.3,35.7,N/A,,Unknown,320,2014-01-13 00:52:00
7:52 PM,28.0,21.9,78,29.65,-9999.0,WNW,23.0,-,N/A,,Unknown,300,2014-01-13 01:52:00
8:52 PM,27.0,19.9,75,29.69,-9999.0,WNW,20.7,-,N/A,,Unknown,300,2014-01-13 02:52:00
9:52 PM,24.1,18.0,77,29.71,-9999.0,WNW,16.1,-,N/A,,Unknown,300,2014-01-13 03:52:00
10:52 PM,21.9,16.0,78,29.70,-9999.0,NW,20.7,-,N/A,,Unknown,310,2014-01-13 04:52:00
11:52 PM,21.0,16.0,81,29.72,-9999.0,WNW,17.3,-,N/A,,Unknown,300,2014-01-13 05:52:00